Lid_Strength_Index
-0 0 0 2 7 7 10 10 7 8 7 5 4 6 6 6 8 9 1 0 -0 -0 -1 -1 -2 -1 -1 -1 -1 -1 -1 -1 -1 -1 -1 -1 -1 -1 -1 -1 -1 -1 -2 -1 -1 -1 -1 -1 -1
1 1 1 4 9 11 10 8 8 7 6 4 5 5 6 7 4 3 2 0 -1 -1 -1 -1 -1 -1 -1 -1 -1 -1 -1 -1 -1 -1 -1 -1 -1 -1 -1 -1 -1 -1 -1 -1 -1 -1 -1 -1 -1
0 0 4 7 9 11 10 8 7 6 5 5 6 4 5 6 3 2 0 -0 -1 -1 -1 -1 -1 -1 -1 -1 -1 -1 -1 -1 -1 -1 -1 -1 -1 -1 -2 -2 -2 -1 -1 -1 -1 -1 -1 -1 -1
1 2 4 8 10 9 8 7 6 6 5 4 5 7 4 2 2 1 -0 -0 -0 -1 -1 -1 -1 -1 -1 -1 -1 -1 -1 -1 -1 -1 -1 -1 -1 -1 -1 -1 -1 -1 -1 -1 -1 -1 -1 -1 -1
2 3 8 9 9 8 7 6 5 6 6 6 5 7 6 2 1 0 -0 -0 -0 -0 -1 -1 -1 -1 -1 -1 -1 -0 -1 -1 -1 -1 -1 -0 -0 -0 -0 -0 -1 -1 -1 -1 -1 -1 -1 -1 -2
4 4 9 10 9 7 6 5 5 6 6 5 6 6 5 2 2 1 -0 -0 -1 -0 -1 -1 -1 -1 -1 -1 -1 0 -1 -1 -1 -0 -0 0 -1 -1 -1 -1 -1 -1 -1 -1 -1 -1 -1 -1 -1
6 6 9 9 9 8 6 4 6 6 6 6 4 7 5 3 1 0 0 -0 -0 -1 -1 -1 -1 -1 -1 -2 -0 -0 -0 -2 -1 -0 0 1 0 -0 -1 -1 -1 -1 -1 -1 -0 -1 -1 -1 -2
4 6 9 9 9 8 6 5 5 5 6 3 3 7 6 3 1 0 0 0 -0 -0 -1 -1 -1 -1 -1 -1 -1 -0 -0 -1 -1 0 -1 -1 -1 -1 -1 -1 -1 -1 -1 -1 -1 -1 -2 -2 -2
4 7 9 9 9 7 6 6 4 3 5 4 4 4 3 2 1 1 1 1 1 0 -0 -1 -1 -1 -1 -1 -1 -1 -1 -2 -1 -1 -1 -0 -1 -0 0 1 -0 -1 -1 -0 -1 -2 -1 -1 -0
6 8 8 6 6 6 5 5 5 5 5 6 5 3 2 2 2 3 3 3 2 1 0 -0 -1 -1 -1 -0 -1 -1 -1 -2 -2 -1 -2 -2 -2 -2 -1 -1 -1 -1 -1 -1 -1 -1 -1 -1 -1
6 7 6 6 5 5 5 5 5 6 7 5 5 4 4 3 3 3 2 2 2 1 1 0 -0 -1 -1 -0 -1 -0 -1 -2 -1 -1 -2 -2 -2 -2 -1 -1 -1 -2 -1 -1 -1 -1 -1 -1 -1
7 5 5 5 5 5 6 5 6 6 5 4 3 3 3 3 3 3 3 2 2 1 1 -0 -0 -0 -1 -0 -0 -1 -1 -1 -1 -2 -2 -2 -2 -2 -2 -2 -2 -2 -2 -2 -2 -2 -2 -1 -1
6 6 5 5 5 5 5 6 6 6 4 3 3 3 3 3 3 2 2 1 1 1 1 0 -0 -0 -1 -1 -0 -0 -1 -0 -1 -2 -2 -2 -2 -2 -2 -2 -2 -2 -2 -1 -1 -2 -1 -1 -1
5 6 6 5 5 5 6 6 6 5 4 4 4 4 3 3 3 2 2 2 2 1 1 0 0 -0 -1 -0 -1 -0 -1 -1 -1 -1 -2 -2 -2 -2 -2 -2 -2 -2 -2 -2 -2 -1 -1 -1 -2
5 7 6 6 6 6 5 8 8 5 4 5 4 4 3 3 3 3 2 2 1 1 0 0 0 -1 -1 -0 -1 -1 -1 -1 -1 -1 -2 -2 -2 -2 -2 -2 -2 -2 -2 -2 -2 -2 -2 -2 -2
7 7 9 7 6 6 6 10 7 5 5 6 5 4 4 3 3 2 1 1 1 2 1 0 -0 -0 -0 -0 -1 -1 -1 -1 -1 -1 -2 -2 -2 -2 -2 -1 -1 -2 -2 -2 -1 -1 -1 -1 -1
7 9 10 9 6 7 7 9 7 5 5 6 5 5 4 4 3 2 1 1 1 1 1 0 -0 0 -0 -1 -1 -1 -1 -1 -1 -1 -1 -2 -2 -1 -1 -1 -2 -2 -2 -1 -1 -1 -1 -0 -0
9 9 9 10 8 7 8 8 7 6 5 6 5 5 4 4 3 2 2 2 2 1 0 0 0 -0 -0 -0 -0 0 1 -0 -1 -1 -1 -2 -1 -1 -1 -1 -1 -1 -1 -1 -1 -0 -1 -0 -0
8 9 10 9 7 8 9 9 7 6 6 6 6 5 5 4 3 2 2 2 1 1 1 1 1 0 -0 0 1 1 2 1 -0 -1 -2 -2 -1 -1 -1 -1 -1 -1 -1 -1 -1 -1 -0 -0 -0
8 9 10 9 8 8 9 8 7 6 6 6 6 5 5 4 3 3 2 2 3 1 1 1 0 0 0 0 -0 1 1 1 -0 -1 -1 -2 -1 -1 -1 -1 -1 -1 -0 -1 -1 -1 -0 -0 -0
8 9 10 9 9 8 9 10 8 7 6 5 5 5 4 4 4 3 3 2 3 2 1 1 0 0 -0 -0 1 1 0 0 0 0 -0 -1 -1 -1 -1 -1 -1 -1 -1 -0 -0 -0 0 1 -0
9 7 8 9 9 12 9 13 10 8 7 6 5 5 4 4 3 3 3 3 2 2 1 1 0 0 -0 -0 1 1 1 2 1 0 -1 -1 -1 -1 -1 -1 -1 -1 -1 -0 -0 -1 -0 0 1
8 7 8 9 10 11 11 12 10 8 8 7 6 5 4 4 3 3 3 2 2 2 2 1 0 0 -0 -0 1 1 1 1 0 -0 0 -0 -1 -1 -1 -1 -1 -1 -0 -1 -1 -0 -0 0 1
6 8 8 9 10 13 12 12 10 9 8 7 6 5 4 4 3 3 2 2 2 1 2 2 2 1 1 1 1 1 1 1 1 1 1 1 0 -0 -1 -1 -1 -1 -1 -1 -1 -1 -0 -0 0
7 9 13 14 14 14 11 12 10 7 7 7 6 5 4 4 3 3 3 3 2 2 2 2 3 2 1 1 1 1 2 1 1 1 1 1 1 0 -0 -1 -1 -1 -1 -1 -1 -0 -0 0 1
8 9 12 16 15 12 11 14 10 7 6 5 5 5 4 4 3 3 3 2 2 2 2 2 2 2 2 2 1 0 1 1 1 0 1 1 0 0 -1 -1 -1 -1 -1 -1 -1 -0 -0 -0 0
8 10 8 12 12 13 12 10 8 7 6 6 5 5 5 4 3 3 2 2 2 2 2 1 2 1 1 1 1 1 0 1 1 0 -0 0 -0 -0 -0 -1 -1 -1 -1 -1 -1 0 0 -0 -0
7 7 11 10 16 16 13 13 11 9 8 7 6 6 5 4 3 3 3 2 2 2 2 1 1 1 1 1 1 1 0 0 0 0 0 0 -0 -0 -0 -0 -0 -0 -1 -1 -0 0 -0 0 0
8 9 10 10 11 14 14 11 8 8 7 7 6 5 5 4 4 3 3 2 2 1 2 1 1 1 1 1 1 0 0 0 0 0 0 0 0 -0 -0 -0 -0 -0 -0 -0 -0 -0 -0 0 0
7 9 9 11 13 12 12 12 7 7 6 6 6 5 4 4 3 3 3 2 2 2 2 2 1 1 1 1 1 0 0 0 1 1 0 -0 0 -0 0 -0 -0 0 -0 -0 0 1 1 1 2